[[{"header":{"parameterUnit":"m.s-1","parameterCategory":1,"la1":30.2991,"la2":30.254,"lo1":-89.0895,"lo2":-89.0444,"dy":0.0017,"dx":0.0017,"nx":28,"ny":28,"refTime":"2025-07-21T21:00:00:Z","depth":0,"parameterNumber":2,"parameterNumberName":"U-component_of_WINDS"},"data":[0,0,0,0,0,0,0,0,0,0,0,0,0,0,0,0,0,0,0,0,0,0,0,0,0,0,0,0,0,0,0,0,0,0,0,0,0,0,0,0,0,0,0,0,0,0,0,0,0,0,0,0,0,0,0,0,0,0,4.6124,4.6125,0,4.6254,4.6256,4.6257,4.6169,4.6165,4.6161,4.6158,4.6294,4.6301,4.6309,0,0,0,0,0,0,0,0,0,0,0,0,0,4.5802,4.5808,4.6124,4.6126,4.6127,4.6254,4.6256,4.6258,4.617,4.6165,4.616,4.6156,4.6292,4.63,4.6309,0,0,0,0,0,0,0,0,0,0,0,0,0,4.5938,4.581,4.6124,4.6099,4.6098,4.6254,4.6256,4.6258,4.6171,4.6165,4.6159,4.6154,4.6289,4.63,4.631,4.6499,0,0,4.6344,4.6349,0,0,0,0,0,0,0,0,4.593,4.595,4.6101,4.6101,4.61,4.6189,4.6192,4.6339,4.6173,4.6144,4.6158,4.6151,4.6264,4.6277,4.6315,4.6505,4.6511,4.6345,4.6352,4.6357,4.636,0,0,0,0,0,0,0,4.5921,4.5944,4.6175,4.6103,4.6103,4.6082,4.6094,4.622,4.6236,4.6146,4.6139,4.6156,4.6263,4.6304,4.6317,4.6513,4.6345,4.6355,4.6362,4.6366,4.6864,4.687,0,0,0,0,0,0,4.5913,4.5936,4.6171,4.6179,4.5998,4.6092,4.6107,4.6167,4.6234,4.6239,4.6161,4.6151,4.6288,4.6305,4.6322,4.6546,4.6357,4.6367,4.6373,4.6857,4.6865,4.6873,0,0,0,0,0,0,4.5907,4.5935,4.6166,4.6056,4.6084,4.6104,4.6173,4.6173,4.6214,4.6246,4.6249,4.62,4.6284,4.6306,4.6455,4.655,4.6372,4.6382,4.685,4.686,4.6869,4.6997,0,0,0,0,0,0,4.5898,4.5933,4.6005,4.6059,4.609,4.6297,4.6179,4.6179,4.6233,4.6221,4.6283,4.6288,4.6281,4.6439,4.6466,4.6562,4.6391,4.6841,4.6854,4.6866,4.6985,4.701,4.7032,0,0,0,0,0,4.5887,4.6036,4.6009,4.6038,4.618,4.6303,4.6321,4.6309,4.6241,4.6313,4.6333,4.6286,4.6535,4.6455,4.6485,4.6585,4.6835,4.6851,4.6865,4.6974,4.7005,4.7032,0,0,0,0,0,0,4.5994,4.6043,4.6013,4.6184,4.624,4.6288,4.6378,4.6343,4.642,4.6406,4.6389,4.6404,4.656,4.6587,4.6497,4.6771,4.6674,4.6696,4.6747,4.6777,4.68,4.6791,4.64,0,0,0,0,0,4.6038,4.6133,4.617,4.6318,4.6347,4.6358,4.6411,4.6397,4.6455,4.6478,4.651,4.6568,4.6659,4.6719,4.6805,4.6988,4.7,4.7072,4.7095,4.7115,4.7134,4.7232,4.7264,4.6921,4.6921,4.6921,0,0,4.6129,4.6167,4.6229,4.6341,4.6382,4.6481,4.6379,4.6488,4.6562,4.6495,4.6637,4.6663,4.6726,4.6893,4.6968,4.692,4.7231,4.7134,4.7149,4.7157,4.725,4.7283,4.7312,4.6932,4.693,4.6928,0,0,4.6346,4.6384,4.6511,4.6555,4.6618,4.6624,4.6655,4.6708,4.6722,4.6864,4.6815,4.6903,4.7061,4.7108,4.7153,4.7386,4.7346,4.7415,4.7539,4.7635,4.7662,4.7686,4.7769,4.7799,4.7434,4.7434,4.7434,0,4.6451,4.6598,4.6581,4.6694,4.6745,4.6688,4.6816,4.6859,4.6949,4.6985,4.6931,4.7126,4.7165,4.7342,4.7399,4.7437,4.7471,4.7408,4.7659,4.7683,4.7705,4.7784,4.7816,4.7442,4.7441,4.744,4.7439,0,4.6725,4.6827,4.6922,4.7008,4.7069,4.719,4.7192,4.7256,4.7237,4.7249,4.7394,4.7439,4.7532,4.7573,4.7556,4.7747,4.7716,4.7661,4.7564,4.7746,4.782,4.785,4.7453,4.745,4.7448,4.7446,0,0,4.7014,4.7088,4.7123,4.7161,4.7226,4.7305,4.7423,4.7513,4.7569,4.7632,4.773,4.7865,4.7814,4.7865,4.7852,4.7936,4.8118,4.7871,4.7872,4.7915,4.8331,4.8372,4.8407,4.8091,4.8097,4.8102,4.8326,0,4.7234,4.7438,4.7426,4.7618,4.7712,4.7659,4.7761,4.7813,4.7827,4.791,4.7926,4.8021,4.7947,4.7977,4.8058,4.8079,4.8202,4.8063,4.8183,4.8188,4.8168,4.8446,4.849,4.8699,4.8355,4.836,4.8363,0,4.7518,4.7589,4.779,4.7841,4.788,4.7972,4.8053,4.8133,4.819,4.8195,4.8251,4.8225,4.8344,4.8244,4.8408,4.8314,4.8362,4.838,4.8388,4.8399,4.8286,4.8464,4.8766,4.8797,4.8409,4.8405,4.8402,0,4.7708,4.7855,4.7993,4.8028,4.809,4.8156,4.8185,4.8237,4.8291,4.8363,4.8398,4.8483,4.853,4.8596,4.8594,4.8521,4.876,4.866,4.8767,4.8768,4.882,4.8817,4.9134,4.8852,4.8852,4.8851,4.8851,0,4.7955,4.808,4.8079,4.8165,4.8304,4.8289,4.8426,4.8449,4.8495,4.8584,4.8544,4.8629,4.862,4.8705,4.8704,4.884,4.8862,4.8869,4.8867,4.8873,4.8872,4.8904,4.8889,4.886,4.8858,4.8856,4.8855,0,4.8191,4.8195,4.8343,4.839,4.8404,4.8505,4.8545,4.8626,4.8636,4.875,4.8776,4.8792,4.8891,4.8895,4.9009,4.9008,4.9173,4.9155,4.9154,4.915,4.9257,4.9247,4.9606,4.9652,4.9341,4.9344,4.9346,0,4.8348,4.8443,4.8499,4.8555,4.8588,4.868,4.8735,4.8724,4.8783,4.8855,4.8928,4.9022,4.9097,4.9258,4.928,4.9367,4.9351,4.9471,4.9364,4.9366,4.9352,4.9346,4.9356,4.9491,4.9495,4.9498,4.95,0,4.8626,4.8624,4.8704,4.8786,4.8853,4.8917,4.8976,4.9025,4.902,4.9089,4.9189,4.9247,4.9362,4.9457,4.9541,4.9571,4.9536,4.9533,4.9563,4.9569,4.9564,4.9568,4.921,4.9525,4.9523,4.9521,4.9519,4.9518,4.8828,4.8909,4.8961,4.9052,4.9095,4.9151,4.9229,4.9249,4.9331,4.9424,4.9412,4.9523,4.9578,4.9687,4.9724,4.9811,4.977,4.9813,4.9824,4.9834,4.9845,4.955,4.9826,4.9826,4.9825,4.9824,4.9824,0,4.9103,4.9134,4.9218,4.9301,4.9373,4.9331,4.9395,4.9458,4.9555,4.9608,4.9683,4.9797,4.9888,4.9918,5.0006,5.007,5.0056,5.0094,5.0089,5.0096,4.9877,4.9843,5.0104,5.0104,5.0103,5.0103,5.0103,5.0103,4.9255,4.939,4.9394,4.955,4.958,4.9687,4.9727,4.9778,4.982,4.995,5.0025,5.0043,5.0087,5.0178,5.026,5.0266,5.03,5.0345,5.0345,5.014,5.0112,5.0085,5.0052,5.0353,5.0353,5.0556,5.0558,5.056]},{"header":{"parameterUnit":"m.s-1","parameterCategory":1,"la1":30.2991,"la2":30.254,"lo1":-89.0895,"lo2":-89.0444,"dy":0.0017,"dx":0.0017,"nx":28,"ny":28,"refTime":"2025-07-21T21:00:00:Z","depth":0,"parameterNumber":3,"parameterNumberName":"V-component_of_WINDS"},"data":[0,0,0,0,0,0,0,0,0,0,0,0,0,0,0,0,0,0,0,0,0,0,0,0,0,0,0,0,0,0,0,0,0,0,0,0,0,0,0,0,0,0,0,0,0,0,0,0,0,0,0,0,0,0,0,0,0,0,0.3667,0.3667,0,0.3655,0.3655,0.3655,0.3626,0.3625,0.3624,0.3624,0.3612,0.3612,0.3613,0,0,0,0,0,0,0,0,0,0,0,0,0,0.3665,0.3665,0.3667,0.3667,0.3667,0.3655,0.3655,0.3655,0.3626,0.3625,0.3624,0.3624,0.3612,0.3612,0.3613,0,0,0,0,0,0,0,0,0,0,0,0,0,0.3661,0.3665,0.3667,0.3651,0.3649,0.3655,0.3655,0.3655,0.3626,0.3625,0.3624,0.3623,0.3612,0.3612,0.3613,0.3634,0,0,0.3614,0.3614,0,0,0,0,0,0,0,0,0.3661,0.3661,0.3654,0.3652,0.365,0.3641,0.365,0.3648,0.3626,0.3635,0.3624,0.3623,0.3623,0.3622,0.3622,0.3633,0.3633,0.3614,0.3614,0.3614,0.3614,0,0,0,0,0,0,0,0.3661,0.3661,0.3663,0.3654,0.3652,0.3644,0.3643,0.3649,0.3634,0.3634,0.3632,0.3631,0.3621,0.3621,0.3621,0.3633,0.3614,0.3614,0.3615,0.3615,0.3659,0.366,0,0,0,0,0,0,0.3664,0.3662,0.3663,0.3662,0.3654,0.3645,0.3643,0.3645,0.3634,0.3631,0.3632,0.3629,0.3621,0.3621,0.3621,0.3644,0.3614,0.3615,0.3615,0.3658,0.3659,0.3661,0,0,0,0,0,0,0.3664,0.3664,0.3664,0.3661,0.3661,0.3646,0.3648,0.3645,0.3645,0.3632,0.3629,0.3634,0.362,0.362,0.363,0.3643,0.3615,0.3615,0.3657,0.3659,0.366,0.3691,0,0,0,0,0,0,0.3664,0.3665,0.3673,0.3662,0.3661,0.3674,0.3649,0.3646,0.3646,0.3643,0.3634,0.3632,0.362,0.363,0.3631,0.3643,0.3616,0.3656,0.3658,0.366,0.3689,0.3694,0.3698,0,0,0,0,0,0.3664,0.3682,0.3673,0.3674,0.3671,0.3675,0.3674,0.366,0.3647,0.3655,0.3646,0.3632,0.3642,0.3631,0.3632,0.3645,0.3655,0.3657,0.3659,0.3687,0.3693,0.3697,0,0,0,0,0,0,0.3696,0.3681,0.367,0.3686,0.3682,0.367,0.3679,0.3666,0.3666,0.3663,0.3646,0.3644,0.3656,0.3651,0.364,0.3664,0.3646,0.3648,0.3667,0.3672,0.3676,0.3677,0.3616,0,0,0,0,0,0.3705,0.3709,0.3695,0.371,0.3708,0.3694,0.3695,0.3685,0.368,0.3678,0.367,0.3666,0.3668,0.3669,0.3671,0.3688,0.3685,0.3697,0.3701,0.3705,0.3707,0.3715,0.372,0.3667,0.3667,0.3667,0,0,0.3723,0.3715,0.3719,0.3716,0.3712,0.3716,0.3693,0.3699,0.3702,0.3679,0.3688,0.3682,0.3676,0.3689,0.3695,0.3686,0.3721,0.3707,0.371,0.3711,0.3717,0.3722,0.3727,0.3669,0.3669,0.3668,0,0,0.3758,0.3753,0.3764,0.376,0.3753,0.3743,0.3746,0.3736,0.373,0.3739,0.3721,0.3724,0.3728,0.3725,0.3723,0.3756,0.3742,0.3756,0.3779,0.3786,0.3791,0.3794,0.3805,0.381,0.3759,0.3759,0.3759,0,0.3782,0.3788,0.3772,0.3779,0.3778,0.3756,0.3767,0.3764,0.3758,0.3758,0.3747,0.3751,0.3745,0.3757,0.3765,0.3765,0.3767,0.3758,0.3791,0.3795,0.3798,0.3808,0.3812,0.3761,0.376,0.376,0.376,0,0.3818,0.3822,0.3832,0.3826,0.3826,0.3835,0.382,0.3822,0.3811,0.3802,0.381,0.3802,0.3801,0.3803,0.3793,0.3813,0.3808,0.3794,0.3776,0.3805,0.3814,0.3818,0.3763,0.3762,0.3762,0.3761,0,0,0.3874,0.3858,0.3862,0.3858,0.3848,0.3852,0.3859,0.3857,0.3859,0.3855,0.3861,0.3864,0.3851,0.385,0.3838,0.3845,0.3871,0.3831,0.3831,0.3838,0.3892,0.3902,0.3907,0.3861,0.3862,0.3862,0.3892,0,0.3907,0.3919,0.3904,0.392,0.3923,0.3901,0.3908,0.3902,0.3894,0.3895,0.3886,0.3888,0.3871,0.387,0.3876,0.3866,0.3881,0.3864,0.3866,0.3866,0.3869,0.3912,0.3923,0.3952,0.3896,0.3897,0.3897,0,0.3948,0.3946,0.3961,0.3949,0.395,0.3956,0.3953,0.3954,0.3947,0.394,0.3938,0.3924,0.393,0.3912,0.3919,0.3908,0.3908,0.3903,0.3904,0.3904,0.3884,0.3913,0.396,0.3965,0.3903,0.3902,0.3902,0,0.3987,0.3988,0.3997,0.3995,0.3981,0.3986,0.398,0.3972,0.3971,0.3968,0.3968,0.3965,0.3964,0.3962,0.3948,0.3936,0.3957,0.3938,0.3951,0.3952,0.3957,0.3957,0.4005,0.3957,0.3957,0.3957,0.3957,0,0.4026,0.4037,0.4014,0.402,0.403,0.4012,0.4023,0.4015,0.4008,0.4011,0.3993,0.3996,0.3977,0.3978,0.3966,0.3974,0.3974,0.3968,0.3965,0.397,0.3971,0.397,0.3968,0.3958,0.3958,0.3958,0.3957,0,0.4072,0.4058,0.4066,0.4052,0.4048,0.4057,0.4045,0.4049,0.4039,0.4043,0.4043,0.4027,0.4027,0.4012,0.401,0.4002,0.4015,0.4008,0.4017,0.4015,0.4029,0.4028,0.4079,0.4084,0.4033,0.4033,0.4034,0,0.4098,0.4105,0.4092,0.4092,0.4088,0.4089,0.4088,0.407,0.407,0.4062,0.4067,0.4066,0.4064,0.4065,0.4053,0.4051,0.4044,0.4062,0.4043,0.4048,0.4044,0.4043,0.4044,0.4066,0.4066,0.4067,0.4067,0,0.4146,0.4138,0.4137,0.4133,0.4133,0.4129,0.4124,0.4126,0.4106,0.4107,0.4107,0.4105,0.4102,0.4101,0.4096,0.409,0.4075,0.4073,0.4076,0.4081,0.4086,0.4083,0.4028,0.4072,0.4072,0.4071,0.4071,0.4071,0.4182,0.4187,0.4178,0.4177,0.4172,0.4167,0.417,0.416,0.416,0.4155,0.4145,0.4146,0.4137,0.4129,0.4124,0.4125,0.4116,0.4121,0.4122,0.4123,0.4126,0.4086,0.4124,0.4124,0.4124,0.4124,0.4123,0,0.4228,0.4221,0.422,0.4214,0.4213,0.4199,0.4193,0.4193,0.4195,0.4188,0.4186,0.4185,0.4183,0.4171,0.4167,0.417,0.4163,0.417,0.4169,0.4168,0.4134,0.4132,0.4175,0.4175,0.4175,0.4175,0.4175,0.4175,0.4252,0.4259,0.425,0.4254,0.4247,0.4248,0.4245,0.4241,0.4235,0.4235,0.4234,0.4225,0.4215,0.4211,0.4209,0.4205,0.4204,0.4213,0.4207,0.4176,0.4171,0.4166,0.4164,0.4213,0.4213,0.4241,0.4241,0.4242]}]]